Weather History for KEKN - February, 2012

Change the Weather History Date:

Thursday, February 16, 2012

  Actual Average Record
Temperature  
Mean Temperature 43 °F 32 °F  
Max Temperature 48 °F 43 °F 71 °F (1921)
Min Temperature 37 °F 22 °F -20 °F (1963)
Degree Days  
Heating Degree Days 22 33  
Month to date heating degree days 507 544  
Since 1 July heating degree days 3407 3945  
Cooling Degree Days 0 0  
Month to date cooling degree days 0 0  
Year to date cooling degree days 0 0  
Moisture  
Dew Point 41 °F    
Average Humidity 73    
Maximum Humidity 96    
Minimum Humidity 49    
Precipitation  
Precipitation 0.25 in 0.11 in 1.14 in (2003)
Month to date precipitation 0.86 1.72  
Year to date precipitation 2.65 4.95  
Snow  
Snow 0.00 in - - ()
Month to date snowfall 5.7  
Since 1 September snowfall 25.9  
Snow Depth 0.00 in    
Sea Level Pressure  
Sea Level Pressure 30.05 in    
Wind  
Wind Speed 6 mph (SSW)    
Max Wind Speed 14 mph    
Max Gust Speed 22 mph    
Visibility 7 miles    
Events Rain    
T = Trace of Precipitation, MM = Missing Value Source: NWS Daily Summary

Daily Weather History Graph

Daily Weather History Graph

Search for Another Location

Airport or City:

Trip Planner

Search our weather history database for the weather conditions in past years. The results will help you decide how hot, cold, wet, or windy it might be!

Date:

Astronomy

Feb. 16, 2012 Rise Set
Actual Time 7:10 AM EST 5:57 PM EST
Civil Twilight 6:42 AM EST 6:24 PM EST
Nautical Twilight 6:11 AM EST 6:56 PM EST
Astronomical Twilight 5:40 AM EST 7:26 PM EST
Moon 3:02 AM EST (2/16) 12:49 PM EST (2/16)
Length of Visible Light 11h 42m
Length of Day
10h 47m
Waning Crescent, 28% of the Moon is Illuminated
Feb 16
Waning Crescent
Feb 21
New
Feb 29
First Quarter
Mar 8
Full
Mar 14
Last Quarter

Hourly Weather History & Observations

Time (EST) Temp. Windchill Dew Point Humidity Pressure Visibility Wind Dir Wind Speed Gust Speed Precip Events Conditions
12:51 AM 42.1 °F 37.7 °F 35.1 °F 76% 30.22 in 10.0 mi South 6.9 mph - 0.00 in   Overcast
1:51 AM 44.1 °F 42.5 °F 35.1 °F 71% 30.18 in 10.0 mi South 3.5 mph - N/A   Overcast
2:51 AM 46.0 °F 43.1 °F 32.0 °F 58% 30.16 in 10.0 mi South 5.8 mph - N/A   Overcast
3:51 AM 46.9 °F - 30.0 °F 52% 30.14 in 10.0 mi South 5.8 mph - N/A   Overcast
4:51 AM 46.9 °F - 28.9 °F 50% 30.13 in 10.0 mi South 3.5 mph - N/A   Overcast
5:51 AM 46.4 °F 41.1 °F 35.6 °F 66% 30.12 in 8.0 mi SSW 11.5 mph 21.9 mph N/A Rain Light Rain
6:51 AM 42.1 °F - 37.0 °F 82% 30.14 in 10.0 mi Calm Calm - 0.02 in   Overcast
7:51 AM 41.0 °F 38.0 °F 37.9 °F 89% 30.15 in 8.0 mi SE 4.6 mph - 0.02 in Rain Light Rain
8:51 AM 42.1 °F 40.2 °F 39.0 °F 89% 30.14 in 10.0 mi South 3.5 mph - 0.03 in   Overcast
9:51 AM 43.0 °F 39.5 °F 37.9 °F 82% 30.10 in 10.0 mi SSE 5.8 mph - 0.00 in Rain Light Rain
10:51 AM 43.0 °F 38.8 °F 39.9 °F 89% 30.09 in 4.0 mi South 6.9 mph - 0.01 in Rain Light Rain
11:51 AM 43.0 °F 38.2 °F 41.0 °F 93% 30.06 in 5.0 mi SE 8.1 mph - 0.05 in Rain Light Rain
12:14 PM 44.6 °F 40.7 °F 41.0 °F 87% 30.02 in 5.0 mi SE 6.9 mph - 0.00 in Rain Light Rain
12:46 PM 44.6 °F 40.7 °F 41.0 °F 87% 30.00 in 6.0 mi SE 6.9 mph - 0.06 in Rain Rain
12:51 PM 44.1 °F 39.5 °F 42.1 °F 93% 30.04 in 4.0 mi SSE 8.1 mph - 0.07 in Rain Rain
1:16 PM 44.6 °F 40.2 °F 42.8 °F 93% 30.00 in 2.5 mi SSE 8.1 mph - 0.03 in Rain Rain
1:24 PM 44.6 °F 40.7 °F 42.8 °F 93% 29.99 in 3.0 mi SE 6.9 mph - 0.05 in Rain Rain
1:31 PM 44.6 °F 41.4 °F 42.8 °F 93% 29.99 in 8.0 mi SE 5.8 mph - 0.05 in Rain Light Rain
1:51 PM 46.0 °F 41.4 °F 43.0 °F 89% 30.01 in 10.0 mi SSE 9.2 mph - 0.05 in   Overcast
2:51 PM 46.9 °F - 43.0 °F 86% 30.00 in 10.0 mi South 6.9 mph - 0.00 in   Overcast
3:42 PM 46.4 °F 45.2 °F 44.6 °F 93% 29.97 in 4.0 mi Variable 3.5 mph - 0.00 in Rain Light Rain
3:51 PM 46.9 °F - 44.1 °F 90% 30.01 in 2.5 mi South 4.6 mph - 0.00 in Rain Light Rain
4:08 PM 46.4 °F 44.3 °F 44.6 °F 93% 29.98 in 3.0 mi SSW 4.6 mph - 0.00 in Rain Light Rain
4:23 PM 46.4 °F 45.2 °F 44.6 °F 93% 29.98 in 2.0 mi South 3.5 mph - 0.00 in Rain Light Rain
4:35 PM 46.4 °F 44.3 °F 44.6 °F 93% 29.99 in 4.0 mi SSW 4.6 mph - 0.00 in Rain Light Rain
4:51 PM 46.0 °F 44.8 °F 44.1 °F 93% 30.02 in 3.0 mi Variable 3.5 mph - 0.00 in Rain Light Rain
5:14 PM 46.4 °F 43.5 °F 44.6 °F 93% 30.00 in 2.5 mi WSW 5.8 mph - 0.00 in Rain Light Rain
5:17 PM 46.4 °F 43.5 °F 44.6 °F 93% 30.00 in 3.0 mi WSW 5.8 mph - 0.00 in Rain Light Rain
5:36 PM 48.2 °F - 44.6 °F 87% 30.01 in 6.0 mi West 5.8 mph 20.7 mph 0.00 in Rain Light Rain
5:44 PM 46.4 °F 44.3 °F 44.6 °F 93% 30.01 in 7.0 mi West 4.6 mph - 0.00 in Rain Light Rain
5:51 PM 46.9 °F - 44.1 °F 90% 30.04 in 6.0 mi Calm Calm - 0.00 in   Overcast
6:46 PM 46.4 °F - 44.6 °F 93% 30.02 in 5.0 mi Calm Calm - 0.00 in Rain Light Rain
6:51 PM 46.9 °F - 44.1 °F 90% 30.06 in 6.0 mi West 5.8 mph - 0.00 in Rain Light Rain
7:34 PM 46.4 °F 44.3 °F 42.8 °F 87% 30.03 in 10.0 mi WNW 4.6 mph - 0.00 in   Overcast
7:51 PM 46.9 °F - 42.1 °F 83% 30.07 in 10.0 mi Calm Calm - 0.00 in   Overcast
7:59 PM 46.4 °F 44.3 °F 42.8 °F 87% 30.03 in 10.0 mi West 4.6 mph - N/A   Overcast
8:34 PM 46.4 °F 45.2 °F 42.8 °F 87% 30.03 in 10.0 mi NW 3.5 mph - 0.00 in   Overcast
8:51 PM 46.4 °F 42.9 °F 42.8 °F 87% 30.03 in 10.0 mi Variable 6.9 mph - N/A   Overcast
9:06 PM 46.4 °F 45.2 °F 42.8 °F 87% 30.02 in 9.0 mi West 3.5 mph - 0.00 in Rain Light Rain
9:51 PM 46.0 °F 43.1 °F 43.0 °F 89% 30.07 in 5.0 mi WNW 5.8 mph - 0.00 in Rain Light Rain
10:46 PM 44.6 °F 40.7 °F 42.8 °F 93% 30.05 in 8.0 mi West 6.9 mph - 0.00 in Rain Light Rain
10:51 PM 45.0 °F 40.1 °F 41.0 °F 86% 30.08 in 10.0 mi West 9.2 mph - 0.00 in   Overcast
11:51 PM 45.0 °F 40.6 °F 39.9 °F 82% 30.08 in 10.0 mi West 8.1 mph - N/A   Overcast